EW4885 Weather Reports


Display with metric or nautical units.
time (UTC)temp
F
wind
direction
speed
MPH
gust
MPH
rain 1hr
in
rain 24hr
in
rain mn
in
humidity
%
barometer
mb
20260510083051 58 146 1.0 3.0 0.02 0.05 0.05 90 1010.6
20260510081609 58 151 1.0 4.0 0.02 0.05 0.05 91 1010.6
20260510080049 57 159 0.0 6.0 0.02 0.04 0.04 90 1010.5
20260510074544 57 170 2.0 6.0 0.02 0.04 0.04 91 1010.6
20260510073053 57 162 3.0 8.0 0.02 0.02 0.02 91 1010.9
20260510071540 57 158 2.0 5.0 0.02 0.02 0.02 91 1010.7
20260510070040 57 128 2.0 6.0 0.01 0.02 0.02 91 1010.7
20260510064551 57 178 3.0 6.0 0.01 0.02 0.02 91 1010.9
20260510063042 57 145 2.0 7.0 0.00 0.01 0.01 90 1010.9
20260510061536 57 146 2.0 6.0 0.00 0.01 0.01 90 1011.0
20260510060042 57 166 1.0 4.0 0.00 0.01 0.01 89 1010.9
20260510054533 57 209 1.0 4.0 0.00 0.01 0.01 89 1010.7
20260510053039 57 185 2.0 7.0 0.00 0.01 0.01 89 1010.8
20260510051608 57 162 3.0 9.0 0.00 0.01 0.01 89 1010.7
20260510050112 57 138 3.0 9.0 0.00 0.01 0.01 88 1010.8
20260510044607 57 199 2.0 9.0 0.00 0.01 0.01 87 1010.9
20260510043100 57 188 5.0 13.0 0.01 0.01 0.01 84 1010.8
20260510041602 58 178 7.0 12.0 0.01 0.01 0.01 84 1010.8
20260510040051 58 174 3.0 10.0 0.01 0.01 0.01 84 1010.9
20260510034549 59 192 6.0 10.0 0.01 0.01 0.01 83 1010.8
20260510033058 60 165 5.0 8.0 0.00 0.00 0.00 80 1010.7
20260510031543 60 175 5.0 8.0 0.00 0.00 0.00 76 1010.6
20260510030046 60 178 6.0 11.0 0.00 0.00 0.00 75 1010.6
20260510024540 60 184 4.0 7.0 0.00 0.00 0.00 75 1010.4
20260510023039 60 204 2.0 6.0 0.00 0.00 0.00 75 1010.2
20260510021539 61 240 2.0 7.0 0.00 0.00 0.00 75 1010.0
20260510020038 61 210 3.0 10.0 0.00 0.00 0.00 74 1009.9
20260510014540 61 197 3.0 7.0 0.00 0.00 0.00 75 1009.7
20260510013038 61 168 4.0 8.0 0.00 0.00 0.00 78 1009.7
20260510011536 61 153 3.0 6.0 0.00 0.00 0.00 81 1009.6
20260510010034 61 194 1.0 3.0 0.00 0.00 0.00 83 1009.5
20260510004535 61 177 2.0 4.0 0.00 0.00 0.00 83 1009.6
20260510003038 60 159 0.0 0.0 0.00 0.00 0.00 83 1009.5
20260510001526 60 120 0.0 0.0 0.00 0.00 0.00 82 1009.5
20260510000024 60 98 0.0 0.0 0.00 0.00 0.00 82 1009.7
20260509234531 61 98 0.0 2.0 0.00 0.00 0.00 82 1009.9
20260509233021 61 81 1.0 3.0 0.00 0.00 0.00 82 1010.0
20260509231519 61 67 1.0 3.0 0.00 0.00 0.00 82 1010.1
20260509230021 61 78 0.0 1.0 0.00 0.00 0.00 81 1010.2
20260509224516 62 78 1.0 4.0 0.00 0.00 0.00 81 1010.2
20260509223013 62 63 1.0 4.0 0.00 0.00 0.00 80 1010.3
20260509221510 63 52 0.0 0.0 0.00 0.00 0.00 78 1010.4
20260509220010 63 101 0.0 0.0 0.00 0.00 0.00 77 1010.4
20260509214508 64 101 0.0 0.0 0.00 0.00 0.00 77 1010.4
20260509213008 63 207 0.0 3.0 0.00 0.00 0.00 76 1010.4
20260509211507 63 126 0.0 2.0 0.00 0.00 0.00 77 1010.4
20260509210015 63 95 1.0 3.0 0.00 0.00 0.00 77 1010.4
20260509204504 64 150 0.0 0.0 0.00 0.00 0.00 76 1010.4
20260509203004 64 150 0.0 0.0 0.00 0.00 0.00 74 1010.4
20260509201504 65 150 0.0 0.0 0.00 0.00 0.00 74 1010.4
20260509200004 65 150 0.0 2.0 0.00 0.00 0.00 71 1010.5
20260509194524 65 150 1.0 3.0 0.00 0.00 0.00 71 1010.4
20260509193033 66 131 1.0 4.0 0.00 0.00 0.00 71 1010.3
20260509191524 67 105 1.0 3.0 0.00 0.00 0.00 69 1010.1
20260509190023 68 69 0.0 2.0 0.00 0.00 0.00 68 1010.0
20260509184530 69 69 0.0 2.0 0.00 0.00 0.00 62 1010.0
20260509183022 71 69 0.0 2.0 0.00 0.00 0.00 60 1009.9
20260509181521 72 64 1.0 3.0 0.00 0.00 0.00 58 1009.9
20260509180021 73 53 2.0 4.0 0.00 0.00 0.00 57 1009.9
20260509174520 74 70 2.0 3.0 0.00 0.00 0.00 52 1010.1
20260509173021 74 291 0.0 2.0 0.00 0.00 0.00 48 1010.1
20260509171527 74 270 1.0 2.0 0.00 0.00 0.00 49 1010.1
20260509170017 74 211 1.0 4.0 0.00 0.00 0.00 48 1010.2
20260509164519 74 242 2.0 5.0 0.00 0.00 0.00 49 1010.3
20260509163016 74 307 2.0 6.0 0.00 0.00 0.00 46 1010.3
20260509161514 75 238 3.0 7.0 0.00 0.00 0.00 46 1010.3
20260509160017 75 263 4.0 8.0 0.00 0.00 0.00 46 1010.6
20260509154512 76 34 2.0 7.0 0.00 0.00 0.00 45 1010.5
20260509153010 76 308 1.0 5.0 0.00 0.00 0.00 46 1010.7
20260509151508 76 210 3.0 6.0 0.00 0.00 0.00 48 1010.9
20260509150007 76 256 4.0 9.0 0.00 0.00 0.00 50 1010.9
20260509144505 76 269 2.0 7.0 0.00 0.00 0.00 47 1011.1
20260509143005 75 232 3.0 9.0 0.00 0.00 0.00 48 1011.0
20260509141511 75 204 4.0 9.0 0.00 0.00 0.00 50 1011.1
20260509140001 75 266 6.0 12.0 0.00 0.00 0.00 49 1011.1
20260509134600 75 158 3.0 9.0 0.00 0.00 0.00 49 1011.3
20260509133057 75 232 4.0 10.0 0.00 0.00 0.00 51 1011.5
20260509131556 74 247 4.0 10.0 0.00 0.00 0.00 53 1011.6
20260509130105 74 246 3.0 9.0 0.00 0.00 0.00 51 1011.8
20260509124611 75 172 5.0 9.0 0.00 0.00 0.00 50 1011.7
20260509123059 74 186 4.0 8.0 0.00 0.00 0.00 50 1011.7
20260509121552 73 226 2.0 11.0 0.00 0.00 0.00 51 1012.0
20260509120055 73 191 5.0 11.0 0.00 0.00 0.00 50 1012.4
20260509114546 73 247 6.0 11.0 0.00 0.00 0.00 49 1012.5
20260509113046 73 199 3.0 11.0 0.00 0.00 0.00 47 1012.6
20260509111543 73 175 5.0 12.0 0.00 0.00 0.00 50 1012.7
20260509110040 72 262 5.0 9.0 0.00 0.00 0.00 55 1013.0
20260509104538 73 210 4.0 10.0 0.00 0.00 0.00 49 1013.2
20260509103035 73 182 2.0 7.0 0.00 0.00 0.00 51 1013.2
20260509101531 71 137 2.0 11.0 0.00 0.00 0.00 53 1013.5
20260509100038 71 155 3.0 9.0 0.00 0.00 0.00 56 1013.9
20260509094524 70 185 4.0 10.0 0.00 0.00 0.00 60 1013.9
20260509093019 70 154 3.0 7.0 0.00 0.00 0.00 58 1014.0
20260509091517 69 191 5.0 8.0 0.00 0.00 0.00 58 1014.3
20260509090013 68 198 4.0 10.0 0.00 0.00 0.00 61 1014.4
20260509084514 66 194 6.0 10.0 0.00 0.00 0.00 60 1014.5